Location: ????????
(56.0167°N, 38.0333°E)
Time: 03:40:13
(UTC+00:00)

Cosmos 2082 Rocket - Pass Details

Date: 19 May 2025
Orbit: 832 x 853 km, 71.0° (Epoch: 19 June)

Event Time Altitude Azimuth Distance (km) Brightness Sun altitude
Rises 21:41:59 0° 242° (WSW) 3,374 5.0 -13.9°
Reaches altitude 10° 21:44:34 10° 249° (WSW) 2,445 4.4 -13.9°
Maximum altitude 21:49:50 41° 319° (NW) 1,210 3.4 -13.8°
Drops below altitude 10° 21:55:10 10° 29° (NNE) 2,465 5.8 -13.7°
Sets 21:57:47 0° 37° (NE) 3,406 6.5 -13.7°
